Weather History for KTVC - May, 2014

Change the Weather History Date:

Wednesday, May 7, 2014

  Actual Average Record
Temperature  
Mean Temperature 49 °F 51 °F  
Max Temperature 56 °F 63 °F 89 °F (2015)
Min Temperature 42 °F 39 °F 24 °F (1989)
Degree Days  
Heating Degree Days 16 15  
Month to date heating degree days 142 110  
Since 1 July heating degree days 7896 7177  
Cooling Degree Days 0 0  
Month to date cooling degree days 0 0  
Year to date cooling degree days 0 3  
Moisture  
Dew Point 34 °F    
Average Humidity 63    
Maximum Humidity 80    
Minimum Humidity 45    
Precipitation  
Precipitation 0.27 in 0.09 in 1.13 in (2001)
Month to date precipitation 0.60 0.57  
Year to date precipitation 7.10 9.53  
Sea Level Pressure  
Sea Level Pressure 30.03 in    
Wind  
Wind Speed 7 mph (ESE)    
Max Wind Speed 29 mph    
Max Gust Speed 39 mph    
Visibility 10 miles    
Events Rain    
T = Trace of Precipitation, MM = Missing Value Source: NWS Daily Summary

Daily Weather History Graph

Daily Weather History Graph

Search for Another Location

Airport or City:

Trip Planner

Search our weather history database for the weather conditions in past years. The results will help you decide how hot, cold, wet, or windy it might be!

Date:

Astronomy

May. 07, 2014 Rise Set
Actual Time 6:23 AM EDT 8:54 PM EDT
Civil Twilight 5:50 AM EDT 9:27 PM EDT
Nautical Twilight 5:09 AM EDT 10:09 PM EDT
Astronomical Twilight 4:23 AM EDT 10:56 PM EDT
Moon 1:41 PM EDT (5/7) 2:40 AM EDT (5/7)
Length of Visible Light 15h 36m
Length of Day
14h 30m
First Quarter, 55% of the Moon is Illuminated
May 7
First Quarter
May 14
Full
May 21
Last Quarter
May 28
New
Jun 5
First Quarter

Hourly Weather History & Observations

Time (EDT) Temp. Windchill Dew Point Humidity Pressure Visibility Wind Dir Wind Speed Gust Speed Precip Events Conditions
12:53 AM 48.0 °F - 28.9 °F 48% 30.08 in 10.0 mi ESE 6.9 mph - N/A   Clear
1:53 AM 46.0 °F 42.5 °F 26.1 °F 46% 30.07 in 10.0 mi ESE 6.9 mph - N/A   Clear
2:53 AM 44.1 °F 40.1 °F 26.1 °F 49% 30.06 in 10.0 mi ESE 6.9 mph - N/A   Clear
3:53 AM 43.0 °F 39.5 °F 26.1 °F 51% 30.07 in 10.0 mi East 5.8 mph - N/A   Clear
4:53 AM 44.1 °F 41.5 °F 25.0 °F 47% 30.05 in 10.0 mi Variable 4.6 mph - N/A   Overcast
5:53 AM 45.0 °F 41.2 °F 26.1 °F 48% 30.04 in 10.0 mi East 6.9 mph - N/A   Scattered Clouds
6:53 AM 46.0 °F 44.8 °F 26.1 °F 46% 30.09 in 10.0 mi ESE 3.5 mph - N/A   Overcast
7:53 AM 46.9 °F - 28.0 °F 48% 30.04 in 10.0 mi East 11.5 mph - N/A   Overcast
8:53 AM 48.0 °F - 30.9 °F 52% 30.07 in 10.0 mi Variable 5.8 mph - 0.00 in   Overcast
9:53 AM 48.9 °F - 33.1 °F 54% 30.06 in 10.0 mi ESE 9.2 mph - N/A   Overcast
10:53 AM 50.0 °F - 34.0 °F 54% 30.05 in 10.0 mi East 6.9 mph - 0.00 in Rain Light Rain
11:53 AM 53.1 °F - 34.0 °F 48% 30.08 in 10.0 mi Calm Calm - 0.00 in   Overcast
2:53 PM 55.9 °F - 36.0 °F 47% 30.03 in 10.0 mi ESE 9.2 mph 17.3 mph 0.00 in   Overcast
3:53 PM 50.0 °F - 44.1 °F 80% 30.07 in 5.0 mi ESE 5.8 mph - 0.11 in Rain Rain
4:53 PM 48.9 °F - 42.1 °F 77% 29.93 in 6.0 mi ESE 17.3 mph 39.1 mph 0.12 in Rain Light Rain
5:53 PM 50.0 °F - 42.1 °F 74% 29.99 in 10.0 mi East 8.1 mph - 0.00 in   Overcast
6:53 PM 50.0 °F - 42.1 °F 74% 29.99 in 10.0 mi ESE 11.5 mph 17.3 mph 0.00 in Rain Light Rain
7:53 PM 50.0 °F - 42.1 °F 74% 30.01 in 10.0 mi ESE 6.9 mph - 0.00 in   Overcast
8:53 PM 50.0 °F - 42.1 °F 74% 29.99 in 10.0 mi ESE 4.6 mph - N/A   Mostly Cloudy
9:53 PM 48.9 °F - 41.0 °F 74% 29.97 in 10.0 mi East 6.9 mph - N/A   Mostly Cloudy
10:53 PM 50.0 °F - 41.0 °F 71% 29.98 in 10.0 mi North - - N/A   Overcast
11:53 PM 50.0 °F - 39.9 °F 68% 29.95 in 10.0 mi East 8.1 mph - N/A   Scattered Clouds